Time,TemperatureF,DewpointF,PressureIn,WindDirection,WindDirectionDegrees,WindSpeedMPH,WindSpeedGustMPH,Humidity,HourlyPrecipIn,Conditions,Clouds,dailyrainin,SoftwareType,DateUTC
2013-08-01 00:00:00,58.5,54.0,30.04,West,272,0.0,0.0,85,0.00,,---,0.00,VWS V14.01,2013-08-01 07:00:00,
2013-08-01 00:02:00,58.5,54.0,30.04,West,272,0.0,0.0,85,0.00,,---,0.00,VWS V14.01,2013-08-01 07:02:00,
2013-08-01 00:05:00,58.4,53.9,30.04,West,272,0.0,1.0,85,0.00,,---,0.00,VWS V14.01,2013-08-01 07:05:00,
2013-08-01 00:07:00,58.4,53.9,30.04,West,272,0.0,0.0,85,0.00,,---,0.00,VWS V14.01,2013-08-01 07:07:00,
2013-08-01 00:10:00,58.3,53.8,30.04,WSW,246,0.0,1.0,85,0.00,,---,0.00,VWS V14.01,2013-08-01 07:10:00,
2013-08-01 00:12:00,58.3,53.8,30.04,WSW,246,0.0,0.0,85,0.00,,---,0.00,VWS V14.01,2013-08-01 07:12:00,
2013-08-01 00:15:00,58.4,53.9,30.04,WSW,246,0.0,1.0,85,0.00,,---,0.00,VWS V14.01,2013-08-01 07:15:00,
2013-08-01 00:17:00,58.4,53.9,30.04,WSW,246,0.0,0.0,85,0.00,,---,0.00,VWS V14.01,2013-08-01 07:17:00,
2013-08-01 00:20:00,58.6,54.1,30.04,SSW,212,0.0,1.0,85,0.00,,---,0.00,VWS V14.01,2013-08-01 07:20:00,
2013-08-01 00:22:00,58.6,54.1,30.04,SSW,212,0.0,0.0,85,0.00,,---,0.00,VWS V14.01,2013-08-01 07:22:00,
2013-08-01 00:25:00,58.8,54.3,30.04,SE,134,1.0,1.0,85,0.00,,---,0.00,VWS V14.01,2013-08-01 07:25:00,
2013-08-01 00:27:00,58.8,54.3,30.04,SE,140,0.0,1.0,85,0.00,,---,0.00,VWS V14.01,2013-08-01 07:27:00,
2013-08-01 00:30:00,58.8,54.3,30.04,WSW,242,0.0,2.0,85,0.00,,---,0.00,VWS V14.01,2013-08-01 07:30:00,
2013-08-01 00:32:00,58.8,54.3,30.04,WSW,242,1.0,1.0,85,0.00,,---,0.00,VWS V14.01,2013-08-01 07:32:00,
2013-08-01 00:35:00,58.7,54.2,30.04,WSW,240,0.0,2.0,85,0.00,,---,0.00,VWS V14.01,2013-08-01 07:35:00,
2013-08-01 00:37:00,58.7,54.2,30.05,SSW,209,0.0,1.0,85,0.00,,---,0.00,VWS V14.01,2013-08-01 07:37:00,
2013-08-01 00:40:00,58.5,54.0,30.05,SW,220,1.0,5.0,85,0.00,,---,0.00,VWS V14.01,2013-08-01 07:40:00,
2013-08-01 00:42:00,58.5,54.0,30.05,WSW,240,0.0,1.0,85,0.00,,---,0.00,VWS V14.01,2013-08-01 07:42:00,
2013-08-01 00:45:00,58.3,53.8,30.05,SSE,158,0.0,2.0,85,0.00,,---,0.00,VWS V14.01,2013-08-01 07:45:00,
2013-08-01 00:47:00,58.3,53.8,30.05,WSW,237,0.0,0.0,85,0.00,,---,0.00,VWS V14.01,2013-08-01 07:47:00,
2013-08-01 00:50:00,58.2,53.7,30.04,SE,138,1.0,2.0,85,0.00,,---,0.00,VWS V14.01,2013-08-01 07:50:00,
2013-08-01 00:52:00,58.1,53.6,30.05,SSE,157,0.0,1.0,85,0.00,,---,0.00,VWS V14.01,2013-08-01 07:52:00,
2013-08-01 00:55:00,58.0,53.5,30.05,SSE,153,0.0,1.0,85,0.00,,---,0.00,VWS V14.01,2013-08-01 07:55:00,
2013-08-01 00:57:00,58.0,53.5,30.05,NW,306,1.0,1.0,85,0.00,,---,0.00,VWS V14.01,2013-08-01 07:57:00,
2013-08-01 01:00:00,58.0,53.5,30.05,SW,235,0.0,2.0,85,0.00,,---,0.00,VWS V14.01,2013-08-01 08:00:00,
2013-08-01 01:02:00,57.9,53.4,30.05,SW,215,0.0,1.0,85,0.00,,---,0.00,VWS V14.01,2013-08-01 08:02:00,
2013-08-01 01:05:00,57.9,53.4,30.05,WSW,255,0.0,1.0,85,0.00,,---,0.00,VWS V14.01,2013-08-01 08:05:00,
2013-08-01 01:07:00,57.9,53.4,30.05,WSW,240,0.0,2.0,85,0.00,,---,0.00,VWS V14.01,2013-08-01 08:07:00,
2013-08-01 01:10:00,57.9,53.4,30.05,West,260,0.0,2.0,85,0.00,,---,0.00,VWS V14.01,2013-08-01 08:10:00,
2013-08-01 01:13:00,57.8,53.3,30.05,SW,229,1.0,1.0,85,0.00,,---,0.00,VWS V14.01,2013-08-01 08:13:00,
2013-08-01 01:15:00,57.8,53.3,30.05,WSW,250,0.0,2.0,85,0.00,,---,0.00,VWS V14.01,2013-08-01 08:15:00,
2013-08-01 01:18:00,57.8,53.3,30.05,WSW,251,0.0,0.0,85,0.00,,---,0.00,VWS V14.01,2013-08-01 08:18:00,
2013-08-01 01:20:00,57.8,53.3,30.05,WSW,254,1.0,5.0,85,0.00,,---,0.00,VWS V14.01,2013-08-01 08:20:00,
2013-08-01 01:23:00,57.7,53.2,30.05,North,350,0.0,1.0,85,0.00,,---,0.00,VWS V14.01,2013-08-01 08:23:00,
2013-08-01 01:25:00,57.7,53.2,30.05,SSE,164,0.0,2.0,85,0.00,,---,0.00,VWS V14.01,2013-08-01 08:25:00,
2013-08-01 01:28:00,57.7,53.2,30.05,SW,236,0.0,1.0,85,0.00,,---,0.00,VWS V14.01,2013-08-01 08:28:00,
2013-08-01 01:30:00,57.6,53.1,30.05,WSW,252,0.0,1.0,85,0.00,,---,0.00,VWS V14.01,2013-08-01 08:30:00,
2013-08-01 01:33:00,57.6,53.1,30.05,West,259,0.0,1.0,85,0.00,,---,0.00,VWS V14.01,2013-08-01 08:33:00,
2013-08-01 01:35:00,57.5,53.0,30.05,WNW,283,0.0,1.0,85,0.00,,---,0.00,VWS V14.01,2013-08-01 08:35:00,
2013-08-01 01:38:00,57.5,53.0,30.05,West,260,1.0,4.0,85,0.00,,---,0.00,VWS V14.01,2013-08-01 08:38:00,
2013-08-01 01:40:00,57.3,52.8,30.05,WSW,245,0.0,4.0,85,0.00,,---,0.00,VWS V14.01,2013-08-01 08:40:00,
2013-08-01 01:43:00,57.2,52.7,30.05,West,272,0.0,1.0,85,0.00,,---,0.00,VWS V14.01,2013-08-01 08:43:00,
2013-08-01 01:45:00,57.1,52.6,30.04,SW,229,2.0,3.0,85,0.00,,---,0.00,VWS V14.01,2013-08-01 08:45:00,
2013-08-01 01:48:00,57.0,52.5,30.04,WSW,248,0.0,2.0,85,0.00,,---,0.00,VWS V14.01,2013-08-01 08:48:00,
2013-08-01 01:50:00,56.9,52.4,30.04,West,265,0.0,2.0,85,0.00,,---,0.00,VWS V14.01,2013-08-01 08:50:00,
2013-08-01 01:54:00,56.8,52.3,30.04,West,275,0.0,2.0,85,0.00,,---,0.00,VWS V14.01,2013-08-01 08:54:00,
2013-08-01 01:55:00,56.8,52.3,30.04,SW,235,0.0,2.0,85,0.00,,---,0.00,VWS V14.01,2013-08-01 08:55:00,
2013-08-01 01:59:00,56.8,52.3,30.04,WSW,240,0.0,1.0,85,0.00,,---,0.00,VWS V14.01,2013-08-01 08:59:00,
2013-08-01 02:00:00,56.8,52.3,30.04,WSW,247,0.0,4.0,85,0.00,,---,0.00,VWS V14.01,2013-08-01 09:00:00,
2013-08-01 02:04:00,56.8,52.3,30.04,SSE,152,0.0,2.0,85,0.00,,---,0.00,VWS V14.01,2013-08-01 09:04:00,
2013-08-01 02:05:00,56.8,52.3,30.04,SSE,153,0.0,2.0,85,0.00,,---,0.00,VWS V14.01,2013-08-01 09:05:00,
2013-08-01 02:09:00,56.7,52.2,30.04,SW,219,1.0,1.0,85,0.00,,---,0.00,VWS V14.01,2013-08-01 09:09:00,
2013-08-01 02:10:00,56.7,52.2,30.04,SE,141,1.0,3.0,85,0.00,,---,0.00,VWS V14.01,2013-08-01 09:10:00,
2013-08-01 02:14:00,56.7,52.2,30.04,SSE,157,1.0,2.0,85,0.00,,---,0.00,VWS V14.01,2013-08-01 09:14:00,
2013-08-01 02:15:00,56.7,52.2,30.04,SSE,152,0.0,2.0,85,0.00,,---,0.00,VWS V14.01,2013-08-01 09:15:00,
2013-08-01 02:19:00,56.7,52.2,30.04,WSW,257,0.0,1.0,85,0.00,,---,0.00,VWS V14.01,2013-08-01 09:19:00,
2013-08-01 02:20:00,56.7,52.2,30.04,WNW,283,0.0,1.0,85,0.00,,---,0.00,VWS V14.01,2013-08-01 09:20:00,
2013-08-01 02:24:00,56.7,52.2,30.04,South,176,0.0,1.0,85,0.00,,---,0.00,VWS V14.01,2013-08-01 09:24:00,
2013-08-01 02:25:00,56.7,52.2,30.04,SSE,152,0.0,1.0,85,0.00,,---,0.00,VWS V14.01,2013-08-01 09:25:00,
2013-08-01 02:29:00,56.8,52.3,30.04,SE,139,1.0,1.0,85,0.00,,---,0.00,VWS V14.01,2013-08-01 09:29:00,
2013-08-01 02:30:00,56.7,52.2,30.04,SSE,154,1.0,3.0,85,0.00,,---,0.00,VWS V14.01,2013-08-01 09:30:00,
2013-08-01 02:35:00,56.7,52.2,30.04,SW,227,0.0,1.0,85,0.00,,---,0.00,VWS V14.01,2013-08-01 09:35:00,
2013-08-01 02:40:00,56.7,52.2,30.04,SE,141,0.0,1.0,85,0.00,,---,0.00,VWS V14.01,2013-08-01 09:40:00,
2013-08-01 02:45:00,56.8,52.3,30.04,SSE,150,0.0,2.0,85,0.00,,---,0.00,VWS V14.01,2013-08-01 09:45:00,
2013-08-01 02:50:00,56.8,52.3,30.04,SSE,158,0.0,2.0,85,0.00,,---,0.00,VWS V14.01,2013-08-01 09:50:00,
2013-08-01 02:55:00,56.9,52.4,30.04,SSE,151,0.0,5.0,85,0.00,,---,0.00,VWS V14.01,2013-08-01 09:55:00,
2013-08-01 02:56:00,56.9,52.4,30.04,SE,144,1.0,5.0,85,0.00,,---,0.00,VWS V14.01,2013-08-01 09:56:00,
2013-08-01 03:00:00,56.8,52.3,30.04,SSE,165,1.0,4.0,85,0.00,,---,0.00,VWS V14.01,2013-08-01 10:00:00,
2013-08-01 03:01:00,56.8,52.3,30.04,SSE,157,2.0,4.0,85,0.00,,---,0.00,VWS V14.01,2013-08-01 10:01:00,
2013-08-01 03:05:00,56.7,52.2,30.04,SSE,165,1.0,2.0,85,0.00,,---,0.00,VWS V14.01,2013-08-01 10:05:00,
2013-08-01 03:06:00,56.7,52.2,30.04,SSE,154,0.0,2.0,85,0.00,,---,0.00,VWS V14.01,2013-08-01 10:06:00,
2013-08-01 03:10:00,56.6,52.2,30.04,South,176,3.0,6.0,85,0.00,,---,0.00,VWS V14.01,2013-08-01 10:10:00,
2013-08-01 03:11:00,56.6,52.2,30.04,South,191,2.0,2.0,85,0.00,,---,0.00,VWS V14.01,2013-08-01 10:11:00,
2013-08-01 03:15:00,56.5,52.0,30.04,SSE,167,1.0,3.0,85,0.00,,---,0.00,VWS V14.01,2013-08-01 10:15:00,
2013-08-01 03:16:00,56.5,52.0,30.04,West,263,0.0,3.0,85,0.00,,---,0.00,VWS V14.01,2013-08-01 10:16:00,
2013-08-01 03:20:00,56.5,52.0,30.04,SSE,150,0.0,4.0,85,0.00,,---,0.00,VWS V14.01,2013-08-01 10:20:00,
2013-08-01 03:21:00,56.5,52.0,30.04,SSW,194,0.0,4.0,85,0.00,,---,0.00,VWS V14.01,2013-08-01 10:21:00,
2013-08-01 03:25:00,56.4,52.0,30.04,West,262,1.0,3.0,85,0.00,,---,0.00,VWS V14.01,2013-08-01 10:25:00,
2013-08-01 03:26:00,56.4,52.0,30.04,West,262,1.0,1.0,85,0.00,,---,0.00,VWS V14.01,2013-08-01 10:26:00,
2013-08-01 03:30:00,56.3,51.9,30.04,West,264,0.0,1.0,85,0.00,,---,0.00,VWS V14.01,2013-08-01 10:30:00,
2013-08-01 03:31:00,56.3,51.9,30.04,West,264,0.0,1.0,85,0.00,,---,0.00,VWS V14.01,2013-08-01 10:31:00,
2013-08-01 03:35:00,56.2,51.8,30.04,SSW,196,1.0,5.0,85,0.00,,---,0.00,VWS V14.01,2013-08-01 10:35:00,
2013-08-01 03:37:00,56.2,51.8,30.04,SSW,196,0.0,1.0,85,0.00,,---,0.00,VWS V14.01,2013-08-01 10:37:00,
2013-08-01 03:40:00,55.9,51.5,30.04,WNW,302,2.0,6.0,85,0.00,,---,0.00,VWS V14.01,2013-08-01 10:40:00,
2013-08-01 03:42:00,55.9,51.5,30.04,West,264,2.0,6.0,85,0.00,,---,0.00,VWS V14.01,2013-08-01 10:42:00,
2013-08-01 03:45:00,55.7,51.3,30.04,SSW,212,0.0,6.0,85,0.00,,---,0.00,VWS V14.01,2013-08-01 10:45:00,
2013-08-01 03:47:00,55.7,51.3,30.04,SW,233,0.0,1.0,85,0.00,,---,0.00,VWS V14.01,2013-08-01 10:47:00,
2013-08-01 03:50:00,55.7,51.3,30.04,WSW,243,5.0,10.0,85,0.00,,---,0.00,VWS V14.01,2013-08-01 10:50:00,
2013-08-01 03:52:00,55.6,51.2,30.04,SW,227,1.0,7.0,85,0.00,,---,0.00,VWS V14.01,2013-08-01 10:52:00,
2013-08-01 03:55:00,55.4,51.0,30.04,West,260,2.0,7.0,85,0.00,,---,0.00,VWS V14.01,2013-08-01 10:55:00,
2013-08-01 03:58:00,55.3,50.9,30.04,West,259,0.0,2.0,85,0.00,,---,0.00,VWS V14.01,2013-08-01 10:58:00,
2013-08-01 04:00:00,55.2,50.8,30.04,South,176,1.0,4.0,85,0.00,,---,0.00,VWS V14.01,2013-08-01 11:00:00,
2013-08-01 04:03:00,55.2,50.8,30.04,West,269,2.0,3.0,85,0.00,,---,0.00,VWS V14.01,2013-08-01 11:03:00,
2013-08-01 04:05:00,55.1,50.4,30.04,WSW,255,2.0,3.0,84,0.00,,---,0.00,VWS V14.01,2013-08-01 11:05:00,
2013-08-01 04:08:00,55.1,50.4,30.04,WSW,256,1.0,7.0,84,0.00,,---,0.00,VWS V14.01,2013-08-01 11:08:00,
2013-08-01 04:10:00,55.1,50.4,30.04,WSW,245,0.0,7.0,84,0.00,,---,0.00,VWS V14.01,2013-08-01 11:10:00,
2013-08-01 04:13:00,55.0,50.3,30.04,WSW,250,1.0,6.0,84,0.00,,---,0.00,VWS V14.01,2013-08-01 11:13:00,
2013-08-01 04:15:00,55.0,50.3,30.04,West,260,1.0,6.0,84,0.00,,---,0.00,VWS V14.01,2013-08-01 11:15:00,
2013-08-01 04:18:00,55.0,50.3,30.04,WSW,251,2.0,2.0,84,0.00,,---,0.00,VWS V14.01,2013-08-01 11:18:00,
2013-08-01 04:20:00,55.0,50.3,30.04,SSW,198,1.0,3.0,84,0.00,,---,0.00,VWS V14.01,2013-08-01 11:20:00,
2013-08-01 04:23:00,55.0,50.3,30.04,West,260,0.0,1.0,84,0.00,,---,0.00,VWS V14.01,2013-08-01 11:23:00,
2013-08-01 04:25:00,55.1,50.4,30.04,WSW,248,0.0,1.0,84,0.00,,---,0.00,VWS V14.01,2013-08-01 11:25:00,
2013-08-01 04:29:00,55.1,50.4,30.04,WSW,244,0.0,3.0,84,0.00,,---,0.00,VWS V14.01,2013-08-01 11:29:00,
2013-08-01 04:30:00,55.1,50.4,30.04,SW,233,3.0,3.0,84,0.00,,---,0.00,VWS V14.01,2013-08-01 11:30:00,
2013-08-01 04:34:00,55.1,50.4,30.04,WSW,240,5.0,5.0,84,0.00,,---,0.00,VWS V14.01,2013-08-01 11:34:00,
2013-08-01 04:35:00,55.1,50.4,30.04,WNW,293,0.0,5.0,84,0.00,,---,0.00,VWS V14.01,2013-08-01 11:35:00,
2013-08-01 04:39:00,55.0,50.3,30.04,South,185,1.0,4.0,84,0.00,,---,0.00,VWS V14.01,2013-08-01 11:39:00,
2013-08-01 04:40:00,55.0,50.3,30.05,SSW,207,1.0,4.0,84,0.00,,---,0.00,VWS V14.01,2013-08-01 11:40:00,
2013-08-01 04:45:00,55.0,50.3,30.05,SW,236,0.0,3.0,84,0.00,,---,0.00,VWS V14.01,2013-08-01 11:45:00,
2013-08-01 04:50:00,54.9,50.2,30.05,SW,219,1.0,3.0,84,0.00,,---,0.00,VWS V14.01,2013-08-01 11:50:00,
2013-08-01 04:55:00,54.9,50.2,30.05,WSW,249,0.0,4.0,84,0.00,,---,0.00,VWS V14.01,2013-08-01 11:55:00,
2013-08-01 05:00:00,55.0,50.3,30.05,West,259,1.0,3.0,84,0.00,,---,0.00,VWS V14.01,2013-08-01 12:00:00,
2013-08-01 05:05:00,54.9,50.2,30.05,WSW,254,2.0,6.0,84,0.00,,---,0.00,VWS V14.01,2013-08-01 12:05:00,
2013-08-01 05:10:00,54.8,50.1,30.05,West,264,1.0,7.0,84,0.00,,---,0.00,VWS V14.01,2013-08-01 12:10:00,
2013-08-01 05:15:00,54.8,50.1,30.05,West,259,2.0,4.0,84,0.00,,---,0.00,VWS V14.01,2013-08-01 12:15:00,
2013-08-01 05:20:00,54.7,50.0,30.05,WSW,244,1.0,6.0,84,0.00,,---,0.00,VWS V14.01,2013-08-01 12:20:00,
2013-08-01 05:25:00,54.6,49.9,30.05,WSW,255,0.0,8.0,84,0.00,,---,0.00,VWS V14.01,2013-08-01 12:25:00,
2013-08-01 05:30:00,54.7,49.7,30.05,West,271,0.0,2.0,83,0.00,,---,0.00,VWS V14.01,2013-08-01 12:30:00,
2013-08-01 05:35:00,54.7,50.0,30.05,West,261,0.0,3.0,84,0.00,,---,0.00,VWS V14.01,2013-08-01 12:35:00,
2013-08-01 05:40:00,54.7,50.0,30.05,WSW,248,0.0,5.0,84,0.00,,---,0.00,VWS V14.01,2013-08-01 12:40:00,
2013-08-01 05:45:00,54.7,50.0,30.05,WNW,295,1.0,2.0,84,0.00,,---,0.00,VWS V14.01,2013-08-01 12:45:00,
2013-08-01 05:46:00,54.7,50.0,30.05,WNW,295,1.0,2.0,84,0.00,,---,0.00,VWS V14.01,2013-08-01 12:46:00,
2013-08-01 05:50:00,54.7,50.0,30.05,SSW,201,2.0,5.0,84,0.00,,---,0.00,VWS V14.01,2013-08-01 12:50:00,
2013-08-01 05:51:00,54.7,50.0,30.05,SSW,201,2.0,5.0,84,0.00,,---,0.00,VWS V14.01,2013-08-01 12:51:00,
2013-08-01 05:55:00,54.7,50.0,30.06,SW,214,4.0,6.0,84,0.00,,---,0.00,VWS V14.01,2013-08-01 12:55:00,
2013-08-01 05:56:00,54.7,50.0,30.06,West,268,3.0,4.0,84,0.00,,---,0.00,VWS V14.01,2013-08-01 12:56:00,
2013-08-01 06:00:00,54.8,50.1,30.06,South,176,1.0,4.0,84,0.00,,---,0.00,VWS V14.01,2013-08-01 13:00:00,
2013-08-01 06:01:00,54.8,50.1,30.06,SW,231,1.0,1.0,84,0.00,,---,0.00,VWS V14.01,2013-08-01 13:01:00,
2013-08-01 06:05:00,54.8,50.1,30.06,WSW,243,1.0,3.0,84,0.00,,---,0.00,VWS V14.01,2013-08-01 13:05:00,
2013-08-01 06:07:00,54.8,50.1,30.06,WSW,252,1.0,1.0,84,0.00,,---,0.00,VWS V14.01,2013-08-01 13:07:00,
2013-08-01 06:10:00,54.9,50.2,30.06,West,262,3.0,7.0,84,0.00,,---,0.00,VWS V14.01,2013-08-01 13:10:00,
2013-08-01 06:12:00,54.8,50.4,30.06,WSW,255,0.0,3.0,85,0.00,,---,0.00,VWS V14.01,2013-08-01 13:12:00,
2013-08-01 06:15:00,54.9,50.2,30.06,WSW,258,1.0,3.0,84,0.00,,---,0.00,VWS V14.01,2013-08-01 13:15:00,
2013-08-01 06:17:00,54.9,50.2,30.06,West,259,1.0,1.0,84,0.00,,---,0.00,VWS V14.01,2013-08-01 13:17:00,
2013-08-01 06:20:00,54.9,50.5,30.06,WSW,257,1.0,1.0,85,0.00,,---,0.00,VWS V14.01,2013-08-01 13:20:00,
2013-08-01 06:23:00,54.9,50.5,30.06,SSE,154,0.0,1.0,85,0.00,,---,0.00,VWS V14.01,2013-08-01 13:23:00,
2013-08-01 06:25:00,54.9,50.5,30.06,SSE,148,1.0,1.0,85,0.00,,---,0.00,VWS V14.01,2013-08-01 13:25:00,
2013-08-01 06:28:00,54.9,50.5,30.06,WSW,250,0.0,2.0,85,0.00,,---,0.00,VWS V14.01,2013-08-01 13:28:00,
2013-08-01 06:30:00,54.9,50.5,30.06,SSE,155,1.0,2.0,85,0.00,,---,0.00,VWS V14.01,2013-08-01 13:30:00,
2013-08-01 06:33:00,54.9,50.5,30.06,SSE,156,0.0,1.0,85,0.00,,---,0.00,VWS V14.01,2013-08-01 13:33:00,
2013-08-01 06:35:00,54.9,50.5,30.06,WSW,247,0.0,2.0,85,0.00,,---,0.00,VWS V14.01,2013-08-01 13:35:00,
2013-08-01 06:38:00,54.9,50.5,30.06,WSW,255,2.0,2.0,85,0.00,,---,0.00,VWS V14.01,2013-08-01 13:38:00,
2013-08-01 06:40:00,54.9,50.5,30.06,SW,233,2.0,4.0,85,0.00,,---,0.00,VWS V14.01,2013-08-01 13:40:00,
2013-08-01 06:43:00,55.0,50.6,30.06,WSW,238,1.0,3.0,85,0.00,,---,0.00,VWS V14.01,2013-08-01 13:43:00,
2013-08-01 06:45:00,54.9,50.5,30.06,WSW,243,1.0,6.0,85,0.00,,---,0.00,VWS V14.01,2013-08-01 13:45:00,
2013-08-01 06:48:00,55.0,50.6,30.06,WSW,255,1.0,4.0,85,0.00,,---,0.00,VWS V14.01,2013-08-01 13:48:00,
2013-08-01 06:50:00,55.0,50.6,30.06,WSW,244,0.0,6.0,85,0.00,,---,0.00,VWS V14.01,2013-08-01 13:50:00,
2013-08-01 06:55:00,55.1,50.7,30.06,SSE,167,0.0,2.0,85,0.00,,---,0.00,VWS V14.01,2013-08-01 13:55:00,
2013-08-01 07:00:00,55.2,50.8,30.06,SE,140,1.0,2.0,85,0.00,,---,0.00,VWS V14.01,2013-08-01 14:00:00,
2013-08-01 07:05:00,55.3,50.9,30.06,WSW,245,0.0,1.0,85,0.00,,---,0.00,VWS V14.01,2013-08-01 14:05:00,
2013-08-01 07:10:00,55.3,50.9,30.06,SW,228,0.0,4.0,85,0.00,,---,0.00,VWS V14.01,2013-08-01 14:10:00,
2013-08-01 07:15:00,55.3,50.9,30.06,WNW,300,0.0,2.0,85,0.00,,---,0.00,VWS V14.01,2013-08-01 14:15:00,
2013-08-01 07:20:00,55.3,50.9,30.06,SSE,153,0.0,3.0,85,0.00,,---,0.00,VWS V14.01,2013-08-01 14:20:00,
2013-08-01 07:21:00,55.3,50.9,30.06,SSE,155,0.0,3.0,85,0.00,,---,0.00,VWS V14.01,2013-08-01 14:21:00,
2013-08-01 07:25:00,55.3,50.9,30.06,SE,134,2.0,3.0,85,0.00,,---,0.00,VWS V14.01,2013-08-01 14:25:00,
2013-08-01 07:26:00,55.3,50.9,30.06,SE,146,3.0,3.0,85,0.00,,---,0.00,VWS V14.01,2013-08-01 14:26:00,
2013-08-01 07:30:00,55.4,51.0,30.06,SE,140,2.0,3.0,85,0.00,,---,0.00,VWS V14.01,2013-08-01 14:30:00,
2013-08-01 07:32:00,55.4,51.3,30.06,SSE,148,1.0,2.0,86,0.00,,---,0.00,VWS V14.01,2013-08-01 14:32:00,
2013-08-01 07:35:00,55.4,51.0,30.06,SE,135,0.0,3.0,85,0.00,,---,0.00,VWS V14.01,2013-08-01 14:35:00,
2013-08-01 07:37:00,55.5,51.1,30.06,SW,222,0.0,1.0,85,0.00,,---,0.00,VWS V14.01,2013-08-01 14:37:00,
2013-08-01 07:40:00,55.7,51.6,30.06,West,261,0.0,2.0,86,0.00,,---,0.00,VWS V14.01,2013-08-01 14:40:00,
2013-08-01 07:42:00,55.7,51.6,30.06,WNW,285,0.0,1.0,86,0.00,,---,0.00,VWS V14.01,2013-08-01 14:42:00,
2013-08-01 07:45:00,55.8,51.7,30.06,SE,146,1.0,1.0,86,0.00,,---,0.00,VWS V14.01,2013-08-01 14:45:00,
2013-08-01 07:47:00,55.9,51.8,30.06,West,266,1.0,1.0,86,0.00,,---,0.00,VWS V14.01,2013-08-01 14:47:00,
2013-08-01 07:50:00,55.9,51.8,30.06,SE,136,1.0,3.0,86,0.00,,---,0.00,VWS V14.01,2013-08-01 14:50:00,
2013-08-01 07:52:00,56.0,51.9,30.06,SSE,153,0.0,1.0,86,0.00,,---,0.00,VWS V14.01,2013-08-01 14:52:00,
2013-08-01 07:55:00,56.1,52.0,30.06,WSW,245,0.0,3.0,86,0.00,,---,0.00,VWS V14.01,2013-08-01 14:55:00,
2013-08-01 07:58:00,56.1,52.0,30.06,WSW,238,0.0,1.0,86,0.00,,---,0.00,VWS V14.01,2013-08-01 14:58:00,
2013-08-01 08:00:00,56.2,52.1,30.06,West,259,1.0,6.0,86,0.00,,---,0.00,VWS V14.01,2013-08-01 15:00:00,
2013-08-01 08:03:00,56.2,52.1,30.06,West,271,1.0,4.0,86,0.00,,---,0.00,VWS V14.01,2013-08-01 15:03:00,
2013-08-01 08:05:00,56.2,52.1,30.06,WSW,240,0.0,5.0,86,0.00,,---,0.00,VWS V14.01,2013-08-01 15:05:00,
2013-08-01 08:08:00,56.2,52.1,30.06,SSW,205,0.0,0.0,86,0.00,,---,0.00,VWS V14.01,2013-08-01 15:08:00,
2013-08-01 08:10:00,56.4,52.3,30.06,SE,141,0.0,2.0,86,0.00,,---,0.00,VWS V14.01,2013-08-01 15:10:00,
2013-08-01 08:13:00,56.4,52.3,30.05,SE,127,1.0,3.0,86,0.00,,---,0.00,VWS V14.01,2013-08-01 15:13:00,
2013-08-01 08:15:00,56.5,52.4,30.06,WSW,241,1.0,3.0,86,0.00,,---,0.00,VWS V14.01,2013-08-01 15:15:00,
2013-08-01 08:18:00,56.6,52.5,30.06,West,262,3.0,3.0,86,0.00,,---,0.00,VWS V14.01,2013-08-01 15:18:00,
2013-08-01 08:20:00,56.6,52.5,30.06,WSW,240,1.0,4.0,86,0.00,,---,0.00,VWS V14.01,2013-08-01 15:20:00,
2013-08-01 08:23:00,56.7,52.6,30.06,SSE,162,1.0,2.0,86,0.00,,---,0.00,VWS V14.01,2013-08-01 15:23:00,
2013-08-01 08:25:00,56.8,52.7,30.06,SE,130,0.0,2.0,86,0.00,,---,0.00,VWS V14.01,2013-08-01 15:25:00,
2013-08-01 08:28:00,56.9,52.8,30.06,South,185,0.0,3.0,86,0.00,,---,0.00,VWS V14.01,2013-08-01 15:28:00,
2013-08-01 08:30:00,56.9,52.8,30.06,SW,236,1.0,4.0,86,0.00,,---,0.00,VWS V14.01,2013-08-01 15:30:00,
2013-08-01 08:34:00,56.9,52.8,30.06,WSW,252,1.0,4.0,86,0.00,,---,0.00,VWS V14.01,2013-08-01 15:34:00,
2013-08-01 08:35:00,57.0,52.9,30.06,SSW,201,0.0,4.0,86,0.00,,---,0.00,VWS V14.01,2013-08-01 15:35:00,
2013-08-01 08:39:00,57.1,53.0,30.06,SSE,149,0.0,2.0,86,0.00,,---,0.00,VWS V14.01,2013-08-01 15:39:00,
2013-08-01 08:40:00,57.2,53.1,30.06,SSE,158,0.0,2.0,86,0.00,,---,0.00,VWS V14.01,2013-08-01 15:40:00,
2013-08-01 08:45:00,57.2,53.1,30.06,WNW,300,1.0,2.0,86,0.00,,---,0.00,VWS V14.01,2013-08-01 15:45:00,
2013-08-01 08:50:00,57.3,52.8,30.06,WSW,240,0.0,3.0,85,0.00,,---,0.00,VWS V14.01,2013-08-01 15:50:00,
2013-08-01 08:55:00,57.5,53.0,30.06,SE,143,0.0,1.0,85,0.00,,---,0.00,VWS V14.01,2013-08-01 15:55:00,
2013-08-01 09:00:00,57.5,53.0,30.05,SSE,155,3.0,5.0,85,0.00,,---,0.00,VWS V14.01,2013-08-01 16:00:00,
2013-08-01 09:05:00,57.3,52.8,30.05,WNW,289,1.0,3.0,85,0.00,,---,0.00,VWS V14.01,2013-08-01 16:05:00,
2013-08-01 09:06:00,57.3,52.8,30.05,WSW,245,1.0,3.0,85,0.00,,---,0.00,VWS V14.01,2013-08-01 16:06:00,
2013-08-01 09:10:00,57.5,53.0,30.05,South,181,0.0,2.0,85,0.00,,---,0.00,VWS V14.01,2013-08-01 16:10:00,
2013-08-01 09:11:00,57.5,53.0,30.05,South,181,1.0,2.0,85,0.00,,---,0.00,VWS V14.01,2013-08-01 16:11:00,
2013-08-01 09:15:00,57.6,53.5,30.05,SSE,160,1.0,4.0,86,0.00,,---,0.00,VWS V14.01,2013-08-01 16:15:00,
2013-08-01 09:16:00,57.6,53.5,30.05,SSE,160,1.0,4.0,86,0.00,,---,0.00,VWS V14.01,2013-08-01 16:16:00,
2013-08-01 09:20:00,57.7,53.2,30.05,SE,137,1.0,5.0,85,0.00,,---,0.00,VWS V14.01,2013-08-01 16:20:00,
2013-08-01 09:21:00,57.7,53.2,30.05,SE,137,1.0,5.0,85,0.00,,---,0.00,VWS V14.01,2013-08-01 16:21:00,
2013-08-01 09:25:00,57.7,53.2,30.05,South,185,0.0,4.0,85,0.00,,---,0.00,VWS V14.01,2013-08-01 16:25:00,
2013-08-01 09:26:00,57.7,53.2,30.05,South,185,0.0,4.0,85,0.00,,---,0.00,VWS V14.01,2013-08-01 16:26:00,
2013-08-01 09:30:00,57.7,53.2,30.05,SE,130,3.0,4.0,85,0.00,,---,0.00,VWS V14.01,2013-08-01 16:30:00,
2013-08-01 09:31:00,57.7,53.2,30.05,SE,130,3.0,4.0,85,0.00,,---,0.00,VWS V14.01,2013-08-01 16:31:00,
2013-08-01 09:35:00,57.8,53.3,30.05,SSE,160,1.0,5.0,85,0.00,,---,0.00,VWS V14.01,2013-08-01 16:35:00,
2013-08-01 09:36:00,57.8,53.3,30.05,SSE,160,1.0,5.0,85,0.00,,---,0.00,VWS V14.01,2013-08-01 16:36:00,
2013-08-01 09:40:00,58.0,53.5,30.05,South,191,1.0,4.0,85,0.00,,---,0.00,VWS V14.01,2013-08-01 16:40:00,
2013-08-01 09:42:00,58.0,53.5,30.05,SW,223,1.0,1.0,85,0.00,,---,0.00,VWS V14.01,2013-08-01 16:42:00,
2013-08-01 09:45:00,58.3,53.8,30.05,SE,140,1.0,2.0,85,0.00,,---,0.00,VWS V14.01,2013-08-01 16:45:00,
2013-08-01 09:47:00,58.3,53.8,30.05,SE,140,1.0,1.0,85,0.00,,---,0.00,VWS V14.01,2013-08-01 16:47:00,
2013-08-01 09:50:00,58.5,53.7,30.05,SSW,207,4.0,4.0,84,0.00,,---,0.00,VWS V14.01,2013-08-01 16:50:00,
2013-08-01 09:52:00,58.4,53.6,30.05,SE,138,2.0,4.0,84,0.00,,---,0.00,VWS V14.01,2013-08-01 16:52:00,
2013-08-01 09:55:00,58.4,53.6,30.05,SSE,162,0.0,4.0,84,0.00,,---,0.00,VWS V14.01,2013-08-01 16:55:00,
2013-08-01 09:57:00,58.4,53.6,30.05,SSE,162,0.0,0.0,84,0.00,,---,0.00,VWS V14.01,2013-08-01 16:57:00,
2013-08-01 10:00:00,58.4,53.6,30.05,SSE,157,1.0,6.0,84,0.00,,---,0.00,VWS V14.01,2013-08-01 17:00:00,
2013-08-01 10:02:00,58.4,53.6,30.05,SE,125,3.0,5.0,84,0.00,,---,0.00,VWS V14.01,2013-08-01 17:02:00,
2013-08-01 10:05:00,58.4,53.6,30.05,SE,127,3.0,5.0,84,0.00,,---,0.00,VWS V14.01,2013-08-01 17:05:00,
2013-08-01 10:07:00,58.4,53.6,30.05,SSE,156,0.0,3.0,84,0.00,,---,0.00,VWS V14.01,2013-08-01 17:07:00,
2013-08-01 10:10:00,58.6,53.8,30.05,SSW,205,1.0,3.0,84,0.00,,---,0.00,VWS V14.01,2013-08-01 17:10:00,
2013-08-01 10:12:00,58.6,53.8,30.05,SE,130,1.0,2.0,84,0.00,,---,0.00,VWS V14.01,2013-08-01 17:12:00,
2013-08-01 10:15:00,58.8,54.0,30.05,SSE,163,1.0,5.0,84,0.00,,---,0.00,VWS V14.01,2013-08-01 17:15:00,
2013-08-01 10:17:00,58.8,54.0,30.05,SSE,165,0.0,2.0,84,0.00,,---,0.00,VWS V14.01,2013-08-01 17:17:00,
2013-08-01 10:20:00,59.2,54.4,30.04,WNW,297,0.0,4.0,84,0.00,,---,0.00,VWS V14.01,2013-08-01 17:20:00,
2013-08-01 10:22:00,59.3,54.5,30.04,SSE,153,1.0,2.0,84,0.00,,---,0.00,VWS V14.01,2013-08-01 17:22:00,
2013-08-01 10:25:00,59.5,54.3,30.04,SSE,153,1.0,5.0,83,0.00,,---,0.00,VWS V14.01,2013-08-01 17:25:00,
2013-08-01 10:28:00,59.6,54.4,30.04,SSE,150,3.0,5.0,83,0.00,,---,0.00,VWS V14.01,2013-08-01 17:28:00,
2013-08-01 10:30:00,59.8,54.3,30.04,South,191,3.0,6.0,82,0.00,,---,0.00,VWS V14.01,2013-08-01 17:30:00,
2013-08-01 10:33:00,60.0,54.5,30.05,SE,130,2.0,3.0,82,0.00,,---,0.00,VWS V14.01,2013-08-01 17:33:00,
2013-08-01 10:35:00,60.1,54.3,30.05,South,180,3.0,6.0,81,0.00,,---,0.00,VWS V14.01,2013-08-01 17:35:00,
2013-08-01 10:39:00,60.1,54.3,30.05,SSE,153,2.0,8.0,81,0.00,,---,0.00,VWS V14.01,2013-08-01 17:39:00,
2013-08-01 10:40:00,60.1,54.6,30.05,SE,133,1.0,8.0,82,0.00,,---,0.00,VWS V14.01,2013-08-01 17:40:00,
2013-08-01 10:44:00,60.0,54.2,30.05,SE,145,1.0,5.0,81,0.00,,---,0.00,VWS V14.01,2013-08-01 17:44:00,
2013-08-01 10:45:00,60.0,54.2,30.05,SE,132,2.0,5.0,81,0.00,,---,0.00,VWS V14.01,2013-08-01 17:45:00,
2013-08-01 10:50:00,59.9,54.4,30.05,SSE,153,2.0,5.0,82,0.00,,---,0.00,VWS V14.01,2013-08-01 17:50:00,
2013-08-01 10:55:00,60.0,54.5,30.05,SSE,155,0.0,1.0,82,0.00,,---,0.00,VWS V14.01,2013-08-01 17:55:00,
2013-08-01 11:00:00,60.2,54.7,30.05,SSE,165,1.0,2.0,82,0.00,,---,0.00,VWS V14.01,2013-08-01 18:00:00,
2013-08-01 11:05:00,60.2,54.4,30.05,WSW,246,1.0,4.0,81,0.00,,---,0.00,VWS V14.01,2013-08-01 18:05:00,
2013-08-01 11:10:00,60.4,54.5,30.05,SSE,160,0.0,3.0,81,0.00,,---,0.00,VWS V14.01,2013-08-01 18:10:00,
2013-08-01 11:15:00,60.4,54.5,30.05,WNW,300,1.0,4.0,81,0.00,,---,0.00,VWS V14.01,2013-08-01 18:15:00,
2013-08-01 11:16:00,60.4,54.5,30.05,West,259,1.0,4.0,81,0.00,,---,0.00,VWS V14.01,2013-08-01 18:16:00,
2013-08-01 11:20:00,60.3,54.5,30.05,SW,222,0.0,5.0,81,0.00,,---,0.00,VWS V14.01,2013-08-01 18:20:00,
2013-08-01 11:21:00,60.3,54.5,30.05,SW,222,0.0,5.0,81,0.00,,---,0.00,VWS V14.01,2013-08-01 18:21:00,
2013-08-01 11:25:00,60.7,54.5,30.05,South,180,3.0,6.0,80,0.00,,---,0.00,VWS V14.01,2013-08-01 18:25:00,
2013-08-01 11:26:00,60.7,54.5,30.05,SSE,148,0.0,6.0,80,0.00,,---,0.00,VWS V14.01,2013-08-01 18:26:00,
2013-08-01 11:30:00,60.8,54.6,30.05,West,271,1.0,4.0,80,0.00,,---,0.00,VWS V14.01,2013-08-01 18:30:00,
2013-08-01 11:31:00,60.8,54.6,30.05,West,271,1.0,4.0,80,0.00,,---,0.00,VWS V14.01,2013-08-01 18:31:00,
2013-08-01 11:35:00,61.0,54.5,30.05,SSE,153,0.0,3.0,79,0.00,,---,0.00,VWS V14.01,2013-08-01 18:35:00,
2013-08-01 11:36:00,61.1,54.5,30.05,SSE,153,0.0,0.0,79,0.00,,---,0.00,VWS V14.01,2013-08-01 18:36:00,
2013-08-01 11:40:00,61.3,55.1,30.04,SW,226,0.0,2.0,80,0.00,,---,0.00,VWS V14.01,2013-08-01 18:40:00,
2013-08-01 11:42:00,61.3,55.1,30.05,SSE,165,1.0,1.0,80,0.00,,---,0.00,VWS V14.01,2013-08-01 18:42:00,
2013-08-01 11:45:00,61.7,55.1,30.05,West,265,1.0,2.0,79,0.00,,---,0.00,VWS V14.01,2013-08-01 18:45:00,
2013-08-01 11:47:00,61.8,55.2,30.04,West,264,0.0,1.0,79,0.00,,---,0.00,VWS V14.01,2013-08-01 18:47:00,
2013-08-01 11:50:00,62.0,55.1,30.05,SSE,161,0.0,2.0,78,0.00,,---,0.00,VWS V14.01,2013-08-01 18:50:00,
2013-08-01 11:52:00,62.0,55.1,30.05,SE,141,1.0,4.0,78,0.00,,---,0.00,VWS V14.01,2013-08-01 18:52:00,
2013-08-01 11:55:00,61.9,54.6,30.05,SSE,152,2.0,7.0,77,0.00,,---,0.00,VWS V14.01,2013-08-01 18:55:00,
2013-08-01 11:58:00,61.8,54.5,30.05,South,189,1.0,6.0,77,0.00,,---,0.00,VWS V14.01,2013-08-01 18:58:00,
2013-08-01 12:00:00,61.9,55.0,30.05,SSE,159,2.0,6.0,78,0.00,,---,0.00,VWS V14.01,2013-08-01 19:00:00,
2013-08-01 12:03:00,62.0,55.1,30.05,SSE,155,1.0,3.0,78,0.00,,---,0.00,VWS V14.01,2013-08-01 19:03:00,
2013-08-01 12:05:00,62.1,54.8,30.05,SE,146,0.0,3.0,77,0.00,,---,0.00,VWS V14.01,2013-08-01 19:05:00,
2013-08-01 12:08:00,62.1,54.8,30.05,SE,129,2.0,5.0,77,0.00,,---,0.00,VWS V14.01,2013-08-01 19:08:00,
2013-08-01 12:10:00,62.2,54.9,30.05,SSW,195,1.0,5.0,77,0.00,,---,0.00,VWS V14.01,2013-08-01 19:10:00,
2013-08-01 12:13:00,62.1,54.8,30.05,SE,138,1.0,3.0,77,0.00,,---,0.00,VWS V14.01,2013-08-01 19:13:00,
2013-08-01 12:15:00,62.2,55.3,30.05,ESE,106,3.0,3.0,78,0.00,,---,0.00,VWS V14.01,2013-08-01 19:15:00,
2013-08-01 12:19:00,62.3,55.0,30.05,SSW,208,0.0,3.0,77,0.00,,---,0.00,VWS V14.01,2013-08-01 19:19:00,
2013-08-01 12:20:00,62.5,55.6,30.05,SE,141,1.0,3.0,78,0.00,,---,0.00,VWS V14.01,2013-08-01 19:20:00,
2013-08-01 12:24:00,62.6,54.9,30.05,ESE,113,2.0,5.0,76,0.00,,---,0.00,VWS V14.01,2013-08-01 19:24:00,
2013-08-01 12:25:00,62.6,54.9,30.05,SSE,149,1.0,7.0,76,0.00,,---,0.00,VWS V14.01,2013-08-01 19:25:00,
2013-08-01 12:29:00,62.4,55.1,30.05,ENE,77,0.0,5.0,77,0.00,,---,0.00,VWS V14.01,2013-08-01 19:29:00,
2013-08-01 12:30:00,62.4,54.7,30.05,SSE,163,2.0,6.0,76,0.00,,---,0.00,VWS V14.01,2013-08-01 19:30:00,
2013-08-01 12:34:00,62.5,55.2,30.05,SSE,153,1.0,3.0,77,0.00,,---,0.00,VWS V14.01,2013-08-01 19:34:00,
2013-08-01 12:35:00,62.6,54.9,30.05,East,100,2.0,5.0,76,0.00,,---,0.00,VWS V14.01,2013-08-01 19:35:00,
2013-08-01 12:39:00,62.8,55.5,30.05,SSE,148,1.0,2.0,77,0.00,,---,0.00,VWS V14.01,2013-08-01 19:39:00,
2013-08-01 12:40:00,63.0,55.3,30.05,NW,319,2.0,6.0,76,0.00,,---,0.00,VWS V14.01,2013-08-01 19:40:00,
2013-08-01 12:44:00,63.2,55.2,30.05,WNW,285,1.0,4.0,75,0.00,,---,0.00,VWS V14.01,2013-08-01 19:44:00,
2013-08-01 12:45:00,63.2,55.5,30.05,SE,138,1.0,4.0,76,0.00,,---,0.00,VWS V14.01,2013-08-01 19:45:00,
2013-08-01 12:49:00,63.2,55.2,30.05,SE,128,1.0,3.0,75,0.00,,---,0.00,VWS V14.01,2013-08-01 19:49:00,
2013-08-01 12:50:00,63.3,55.2,30.05,ESE,113,2.0,4.0,75,0.00,,---,0.00,VWS V14.01,2013-08-01 19:50:00,
2013-08-01 12:54:00,63.2,55.2,30.05,SSE,160,1.0,6.0,75,0.00,,---,0.00,VWS V14.01,2013-08-01 19:54:00,
2013-08-01 12:55:00,63.3,55.6,30.05,SSE,148,2.0,6.0,76,0.00,,---,0.00,VWS V14.01,2013-08-01 19:55:00,
2013-08-01 13:00:00,63.3,55.2,30.05,ESE,116,3.0,7.0,75,0.00,,---,0.00,VWS V14.01,2013-08-01 20:00:00,
2013-08-01 13:05:00,63.3,55.2,30.05,SW,226,2.0,6.0,75,0.00,,---,0.00,VWS V14.01,2013-08-01 20:05:00,
2013-08-01 13:10:00,63.6,55.5,30.05,SW,214,1.0,3.0,75,0.00,,---,0.00,VWS V14.01,2013-08-01 20:10:00,
2013-08-01 13:11:00,63.5,55.8,30.05,SE,138,1.0,3.0,76,0.00,,---,0.00,VWS V14.01,2013-08-01 20:11:00,
2013-08-01 13:15:00,63.5,55.1,30.05,East,91,3.0,7.0,74,0.00,,---,0.00,VWS V14.01,2013-08-01 20:15:00,
2013-08-01 13:16:00,63.5,55.4,30.05,SE,139,2.0,7.0,75,0.00,,---,0.00,VWS V14.01,2013-08-01 20:16:00,
2013-08-01 13:20:00,63.6,55.5,30.05,ESE,119,2.0,5.0,75,0.00,,---,0.00,VWS V14.01,2013-08-01 20:20:00,
2013-08-01 13:21:00,63.5,55.4,30.05,SSE,165,2.0,5.0,75,0.00,,---,0.00,VWS V14.01,2013-08-01 20:21:00,
2013-08-01 13:25:00,64.1,55.7,30.05,SSE,165,0.0,5.0,74,0.00,,---,0.00,VWS V14.01,2013-08-01 20:25:00,
2013-08-01 13:26:00,64.0,55.6,30.05,SE,137,1.0,5.0,74,0.00,,---,0.00,VWS V14.01,2013-08-01 20:26:00,
2013-08-01 13:30:00,64.5,55.7,30.05,South,183,1.0,7.0,73,0.00,,---,0.00,VWS V14.01,2013-08-01 20:30:00,
2013-08-01 13:31:00,64.5,55.7,30.05,South,186,2.0,7.0,73,0.00,,---,0.00,VWS V14.01,2013-08-01 20:31:00,
2013-08-01 13:35:00,64.9,55.7,30.04,SSW,197,1.0,5.0,72,0.00,,---,0.00,VWS V14.01,2013-08-01 20:35:00,
2013-08-01 13:36:00,64.9,55.7,30.04,SSW,197,1.0,5.0,72,0.00,,---,0.00,VWS V14.01,2013-08-01 20:36:00,
2013-08-01 13:40:00,65.1,56.2,30.05,SW,221,0.0,5.0,73,0.00,,---,0.00,VWS V14.01,2013-08-01 20:40:00,
2013-08-01 13:41:00,65.0,55.8,30.05,WSW,257,1.0,5.0,72,0.00,,---,0.00,VWS V14.01,2013-08-01 20:41:00,
2013-08-01 13:45:00,65.6,56.3,30.04,SSE,158,4.0,5.0,72,0.00,,---,0.00,VWS V14.01,2013-08-01 20:45:00,
2013-08-01 13:46:00,65.5,56.2,30.04,WSW,237,1.0,4.0,72,0.00,,---,0.00,VWS V14.01,2013-08-01 20:46:00,
2013-08-01 13:50:00,66.1,56.0,30.04,SE,133,1.0,6.0,70,0.00,,---,0.00,VWS V14.01,2013-08-01 20:50:00,
2013-08-01 13:51:00,66.0,56.3,30.04,South,169,3.0,6.0,71,0.00,,---,0.00,VWS V14.01,2013-08-01 20:51:00,
2013-08-01 13:55:00,66.6,56.9,30.04,East,89,0.0,3.0,71,0.00,,---,0.00,VWS V14.01,2013-08-01 20:55:00,
2013-08-01 13:56:00,66.5,56.8,30.04,East,82,0.0,3.0,71,0.00,,---,0.00,VWS V14.01,2013-08-01 20:56:00,
2013-08-01 14:00:00,67.6,56.7,30.04,WSW,248,1.0,5.0,68,0.00,,---,0.00,VWS V14.01,2013-08-01 21:00:00,
2013-08-01 14:01:00,67.5,57.0,30.04,WSW,240,0.0,5.0,69,0.00,,---,0.00,VWS V14.01,2013-08-01 21:01:00,
2013-08-01 14:05:00,68.2,57.2,30.04,SW,218,2.0,4.0,68,0.00,,---,0.00,VWS V14.01,2013-08-01 21:05:00,
2013-08-01 14:06:00,68.2,57.2,30.04,South,181,4.0,4.0,68,0.00,,---,0.00,VWS V14.01,2013-08-01 21:06:00,
2013-08-01 14:10:00,68.4,57.4,30.04,WNW,299,2.0,6.0,68,0.00,,---,0.00,VWS V14.01,2013-08-01 21:10:00,
2013-08-01 14:11:00,68.4,57.4,30.04,WNW,299,2.0,6.0,68,0.00,,---,0.00,VWS V14.01,2013-08-01 21:11:00,
2013-08-01 14:15:00,69.6,57.3,30.04,SW,223,1.0,4.0,65,0.00,,---,0.00,VWS V14.01,2013-08-01 21:15:00,
2013-08-01 14:16:00,69.6,57.3,30.04,SW,223,1.0,4.0,65,0.00,,---,0.00,VWS V14.01,2013-08-01 21:16:00,
2013-08-01 14:20:00,69.2,57.0,30.04,WSW,248,1.0,11.0,65,0.00,,---,0.00,VWS V14.01,2013-08-01 21:20:00,
2013-08-01 14:21:00,69.2,57.0,30.04,WSW,248,1.0,11.0,65,0.00,,---,0.00,VWS V14.01,2013-08-01 21:21:00,
2013-08-01 14:25:00,68.6,56.4,30.04,WSW,244,1.0,5.0,65,0.00,,---,0.00,VWS V14.01,2013-08-01 21:25:00,
2013-08-01 14:26:00,68.6,56.4,30.04,SSW,208,2.0,2.0,65,0.00,,---,0.00,VWS V14.01,2013-08-01 21:26:00,
2013-08-01 14:30:00,68.4,56.6,30.04,West,281,2.0,5.0,66,0.00,,---,0.00,VWS V14.01,2013-08-01 21:30:00,
2013-08-01 14:32:00,68.4,56.6,30.04,SSW,200,1.0,2.0,66,0.00,,---,0.00,VWS V14.01,2013-08-01 21:32:00,
2013-08-01 14:35:00,67.8,56.0,30.04,West,268,5.0,13.0,66,0.00,,---,0.00,VWS V14.01,2013-08-01 21:35:00,
2013-08-01 14:37:00,67.8,56.0,30.04,WSW,252,1.0,5.0,66,0.00,,---,0.00,VWS V14.01,2013-08-01 21:37:00,
2013-08-01 14:40:00,67.2,56.3,30.05,SW,233,4.0,8.0,68,0.00,,---,0.00,VWS V14.01,2013-08-01 21:40:00,
2013-08-01 14:42:00,67.2,55.9,30.05,WNW,301,4.0,7.0,67,0.00,,---,0.00,VWS V14.01,2013-08-01 21:42:00,
2013-08-01 14:45:00,66.9,56.0,30.05,SSE,158,1.0,7.0,68,0.00,,---,0.00,VWS V14.01,2013-08-01 21:45:00,
2013-08-01 14:47:00,66.9,56.0,30.05,WSW,243,1.0,2.0,68,0.00,,---,0.00,VWS V14.01,2013-08-01 21:47:00,
2013-08-01 14:50:00,67.0,56.1,30.05,South,185,3.0,7.0,68,0.00,,---,0.00,VWS V14.01,2013-08-01 21:50:00,
2013-08-01 14:52:00,67.1,56.2,30.05,SE,138,1.0,3.0,68,0.00,,---,0.00,VWS V14.01,2013-08-01 21:52:00,
2013-08-01 14:55:00,66.9,55.6,30.05,SE,141,1.0,8.0,67,0.00,,---,0.00,VWS V14.01,2013-08-01 21:55:00,
2013-08-01 14:57:00,66.9,56.0,30.05,SW,227,1.0,2.0,68,0.00,,---,0.00,VWS V14.01,2013-08-01 21:57:00,
2013-08-01 15:00:00,66.8,55.9,30.05,WSW,258,2.0,5.0,68,0.00,,---,0.00,VWS V14.01,2013-08-01 22:00:00,
2013-08-01 15:02:00,66.9,56.0,30.05,SSE,157,0.0,6.0,68,0.00,,---,0.00,VWS V14.01,2013-08-01 22:02:00,
2013-08-01 15:05:00,67.0,55.7,30.05,West,264,1.0,6.0,67,0.00,,---,0.00,VWS V14.01,2013-08-01 22:05:00,
2013-08-01 15:07:00,66.9,56.0,30.05,WSW,247,2.0,4.0,68,0.00,,---,0.00,VWS V14.01,2013-08-01 22:07:00,
2013-08-01 15:10:00,67.0,55.7,30.05,SE,128,4.0,4.0,67,0.00,,---,0.00,VWS V14.01,2013-08-01 22:10:00,
2013-08-01 15:12:00,67.0,56.1,30.05,SSE,166,3.0,4.0,68,0.00,,---,0.00,VWS V14.01,2013-08-01 22:12:00,
2013-08-01 15:15:00,66.7,55.8,30.05,SSE,148,2.0,6.0,68,0.00,,---,0.00,VWS V14.01,2013-08-01 22:15:00,
2013-08-01 15:17:00,66.6,55.7,30.05,SE,131,4.0,7.0,68,0.00,,---,0.00,VWS V14.01,2013-08-01 22:17:00,
2013-08-01 15:20:00,66.7,56.2,30.05,South,190,1.0,7.0,69,0.00,,---,0.00,VWS V14.01,2013-08-01 22:20:00,
2013-08-01 15:22:00,66.8,56.3,30.05,SSW,201,4.0,4.0,69,0.00,,---,0.00,VWS V14.01,2013-08-01 22:22:00,
2013-08-01 15:25:00,67.0,56.1,30.05,SSW,203,0.0,8.0,68,0.00,,---,0.00,VWS V14.01,2013-08-01 22:25:00,
2013-08-01 15:27:00,66.9,56.0,30.05,WSW,257,4.0,6.0,68,0.00,,---,0.00,VWS V14.01,2013-08-01 22:27:00,
2013-08-01 15:30:00,66.9,56.0,30.05,SSW,212,5.0,10.0,68,0.00,,---,0.00,VWS V14.01,2013-08-01 22:30:00,
2013-08-01 15:32:00,66.8,55.9,30.05,SSE,152,0.0,5.0,68,0.00,,---,0.00,VWS V14.01,2013-08-01 22:32:00,
2013-08-01 15:35:00,66.9,56.0,30.05,SE,142,1.0,5.0,68,0.00,,---,0.00,VWS V14.01,2013-08-01 22:35:00,
2013-08-01 15:37:00,67.0,56.1,30.05,WSW,255,3.0,3.0,68,0.00,,---,0.00,VWS V14.01,2013-08-01 22:37:00,
2013-08-01 15:40:00,66.9,56.0,30.05,SW,233,1.0,6.0,68,0.00,,---,0.00,VWS V14.01,2013-08-01 22:40:00,
2013-08-01 15:42:00,67.0,56.5,30.05,SSE,155,2.0,2.0,69,0.00,,---,0.00,VWS V14.01,2013-08-01 22:42:00,
2013-08-01 15:45:00,67.1,56.2,30.05,WSW,245,5.0,6.0,68,0.00,,---,0.00,VWS V14.01,2013-08-01 22:45:00,
2013-08-01 15:47:00,67.0,55.7,30.05,WSW,240,1.0,7.0,67,0.00,,---,0.00,VWS V14.01,2013-08-01 22:47:00,
2013-08-01 15:50:00,66.6,55.7,30.05,SW,214,6.0,7.0,68,0.00,,---,0.00,VWS V14.01,2013-08-01 22:50:00,
2013-08-01 15:52:00,66.6,56.1,30.05,WSW,255,1.0,6.0,69,0.00,,---,0.00,VWS V14.01,2013-08-01 22:52:00,
2013-08-01 15:55:00,66.7,55.8,30.05,SE,146,4.0,6.0,68,0.00,,---,0.00,VWS V14.01,2013-08-01 22:55:00,
2013-08-01 15:57:00,66.6,55.7,30.05,ESE,107,4.0,4.0,68,0.00,,---,0.00,VWS V14.01,2013-08-01 22:57:00,
2013-08-01 16:00:00,66.3,55.8,30.05,South,181,0.0,4.0,69,0.00,,---,0.00,VWS V14.01,2013-08-01 23:00:00,
2013-08-01 16:02:00,66.3,55.8,30.05,WSW,245,1.0,2.0,69,0.00,,---,0.00,VWS V14.01,2013-08-01 23:02:00,
2013-08-01 16:05:00,66.7,56.2,30.05,WSW,252,1.0,2.0,69,0.00,,---,0.00,VWS V14.01,2013-08-01 23:05:00,
2013-08-01 16:08:00,66.8,56.3,30.05,WSW,250,1.0,2.0,69,0.00,,---,0.00,VWS V14.01,2013-08-01 23:08:00,
2013-08-01 16:10:00,66.9,56.0,30.05,SE,128,2.0,4.0,68,0.00,,---,0.00,VWS V14.01,2013-08-01 23:10:00,
2013-08-01 16:13:00,66.9,55.6,30.05,SSE,162,1.0,4.0,67,0.00,,---,0.00,VWS V14.01,2013-08-01 23:13:00,
2013-08-01 16:15:00,67.1,56.2,30.05,SSW,204,0.0,4.0,68,0.00,,---,0.00,VWS V14.01,2013-08-01 23:15:00,
2013-08-01 16:18:00,67.2,56.3,30.04,WSW,239,0.0,3.0,68,0.00,,---,0.00,VWS V14.01,2013-08-01 23:18:00,
2013-08-01 16:20:00,67.1,56.2,30.04,WSW,239,3.0,3.0,68,0.00,,---,0.00,VWS V14.01,2013-08-01 23:20:00,
2013-08-01 16:23:00,67.1,56.2,30.04,West,262,1.0,3.0,68,0.00,,---,0.00,VWS V14.01,2013-08-01 23:23:00,
2013-08-01 16:25:00,67.2,56.3,30.04,SSE,153,1.0,3.0,68,0.00,,---,0.00,VWS V14.01,2013-08-01 23:25:00,
2013-08-01 16:28:00,67.2,56.3,30.04,SE,124,0.0,3.0,68,0.00,,---,0.00,VWS V14.01,2013-08-01 23:28:00,
2013-08-01 16:30:00,67.3,56.0,30.04,SW,228,1.0,3.0,67,0.00,,---,0.00,VWS V14.01,2013-08-01 23:30:00,
2013-08-01 16:33:00,67.2,55.9,30.04,WSW,245,1.0,5.0,67,0.00,,---,0.00,VWS V14.01,2013-08-01 23:33:00,
2013-08-01 16:35:00,66.8,55.9,30.04,WSW,250,1.0,5.0,68,0.00,,---,0.00,VWS V14.01,2013-08-01 23:35:00,
2013-08-01 16:38:00,66.7,55.8,30.04,SSW,206,2.0,2.0,68,0.00,,---,0.00,VWS V14.01,2013-08-01 23:38:00,
2013-08-01 16:40:00,66.7,55.8,30.04,SSW,202,3.0,5.0,68,0.00,,---,0.00,VWS V14.01,2013-08-01 23:40:00,
2013-08-01 16:43:00,66.6,55.7,30.04,WSW,244,0.0,3.0,68,0.00,,---,0.00,VWS V14.01,2013-08-01 23:43:00,
2013-08-01 16:45:00,66.6,55.7,30.04,South,179,1.0,4.0,68,0.00,,---,0.00,VWS V14.01,2013-08-01 23:45:00,
2013-08-01 16:48:00,66.6,55.7,30.04,SSE,161,0.0,1.0,68,0.00,,---,0.00,VWS V14.01,2013-08-01 23:48:00,
2013-08-01 16:50:00,66.7,56.2,30.03,SSW,193,2.0,2.0,69,0.00,,---,0.00,VWS V14.01,2013-08-01 23:50:00,
2013-08-01 16:53:00,66.8,56.3,30.03,South,174,1.0,2.0,69,0.00,,---,0.00,VWS V14.01,2013-08-01 23:53:00,
2013-08-01 16:55:00,66.7,55.8,30.03,SW,229,3.0,4.0,68,0.00,,---,0.00,VWS V14.01,2013-08-01 23:55:00,
2013-08-01 16:58:00,66.6,56.1,30.03,SSE,150,2.0,4.0,69,0.00,,---,0.00,VWS V14.01,2013-08-01 23:58:00,
2013-08-01 17:00:00,66.6,56.1,30.04,SE,134,1.0,7.0,69,0.00,,---,0.00,VWS V14.01,2013-08-02 00:00:00,
2013-08-01 17:03:00,66.6,56.1,30.03,SW,214,0.0,4.0,69,0.00,,---,0.00,VWS V14.01,2013-08-02 00:03:00,
2013-08-01 17:05:00,66.7,56.2,30.03,SW,219,1.0,4.0,69,0.00,,---,0.00,VWS V14.01,2013-08-02 00:05:00,
2013-08-01 17:08:00,66.8,56.3,30.03,West,268,2.0,2.0,69,0.00,,---,0.00,VWS V14.01,2013-08-02 00:08:00,
2013-08-01 17:10:00,66.7,55.8,30.03,West,273,3.0,5.0,68,0.00,,---,0.00,VWS V14.01,2013-08-02 00:10:00,
2013-08-01 17:13:00,66.5,56.0,30.03,West,268,1.0,3.0,69,0.00,,---,0.00,VWS V14.01,2013-08-02 00:13:00,
2013-08-01 17:15:00,66.3,55.8,30.03,WSW,253,0.0,5.0,69,0.00,,---,0.00,VWS V14.01,2013-08-02 00:15:00,
2013-08-01 17:19:00,66.2,56.1,30.03,SSW,200,1.0,4.0,70,0.00,,---,0.00,VWS V14.01,2013-08-02 00:19:00,
2013-08-01 17:20:00,66.2,56.1,30.03,SW,226,0.0,4.0,70,0.00,,---,0.00,VWS V14.01,2013-08-02 00:20:00,
2013-08-01 17:24:00,66.2,56.1,30.03,SSE,165,1.0,2.0,70,0.00,,---,0.00,VWS V14.01,2013-08-02 00:24:00,
2013-08-01 17:25:00,66.1,56.0,30.03,WSW,250,6.0,7.0,70,0.00,,---,0.00,VWS V14.01,2013-08-02 00:25:00,
2013-08-01 17:29:00,65.9,56.2,30.03,NW,307,1.0,6.0,71,0.00,,---,0.00,VWS V14.01,2013-08-02 00:29:00,
2013-08-01 17:30:00,65.9,56.2,30.03,South,191,1.0,6.0,71,0.00,,---,0.00,VWS V14.01,2013-08-02 00:30:00,
2013-08-01 17:34:00,65.9,56.2,30.03,WSW,254,0.0,2.0,71,0.00,,---,0.00,VWS V14.01,2013-08-02 00:34:00,
2013-08-01 17:35:00,65.9,55.8,30.03,SE,124,0.0,2.0,70,0.00,,---,0.00,VWS V14.01,2013-08-02 00:35:00,
2013-08-01 17:39:00,65.9,55.8,30.03,South,171,1.0,5.0,70,0.00,,---,0.00,VWS V14.01,2013-08-02 00:39:00,
2013-08-01 17:40:00,65.9,56.2,30.03,SSW,210,0.0,5.0,71,0.00,,---,0.00,VWS V14.01,2013-08-02 00:40:00,
2013-08-01 17:44:00,65.8,55.8,30.03,SE,136,3.0,5.0,70,0.00,,---,0.00,VWS V14.01,2013-08-02 00:44:00,
2013-08-01 17:45:00,65.7,56.0,30.03,SSE,158,1.0,5.0,71,0.00,,---,0.00,VWS V14.01,2013-08-02 00:45:00,
2013-08-01 17:50:00,65.5,55.9,30.03,SSW,209,1.0,4.0,71,0.00,,---,0.00,VWS V14.01,2013-08-02 00:50:00,
2013-08-01 17:55:00,65.4,56.2,30.03,WSW,258,1.0,5.0,72,0.00,,---,0.00,VWS V14.01,2013-08-02 00:55:00,
2013-08-01 18:00:00,65.5,55.9,30.04,SE,141,3.0,4.0,71,0.00,,---,0.00,VWS V14.01,2013-08-02 01:00:00,
2013-08-01 18:05:00,65.4,55.8,30.03,SSE,149,0.0,4.0,71,0.00,,---,0.00,VWS V14.01,2013-08-02 01:05:00,
2013-08-01 18:10:00,65.5,56.2,30.03,SW,234,0.0,2.0,72,0.00,,---,0.00,VWS V14.01,2013-08-02 01:10:00,
2013-08-01 18:15:00,65.6,56.3,30.03,SSE,155,1.0,1.0,72,0.00,,---,0.00,VWS V14.01,2013-08-02 01:15:00,
2013-08-01 18:20:00,65.7,56.0,30.03,SSE,162,0.0,3.0,71,0.00,,---,0.00,VWS V14.01,2013-08-02 01:20:00,
2013-08-01 18:25:00,65.7,56.0,30.03,SSE,147,0.0,2.0,71,0.00,,---,0.00,VWS V14.01,2013-08-02 01:25:00,
2013-08-01 18:30:00,65.8,56.2,30.03,WSW,252,0.0,3.0,71,0.00,,---,0.00,VWS V14.01,2013-08-02 01:30:00,
2013-08-01 18:35:00,66.0,56.3,30.03,West,261,1.0,5.0,71,0.00,,---,0.00,VWS V14.01,2013-08-02 01:35:00,
2013-08-01 18:40:00,66.1,56.4,30.03,SW,236,0.0,1.0,71,0.00,,---,0.00,VWS V14.01,2013-08-02 01:40:00,
2013-08-01 18:45:00,66.2,56.1,30.03,South,170,0.0,5.0,70,0.00,,---,0.00,VWS V14.01,2013-08-02 01:45:00,
2013-08-01 18:50:00,66.2,56.1,30.03,SSE,157,1.0,3.0,70,0.00,,---,0.00,VWS V14.01,2013-08-02 01:50:00,
2013-08-01 18:55:00,66.0,56.0,30.03,West,262,1.0,2.0,70,0.00,,---,0.00,VWS V14.01,2013-08-02 01:55:00,
2013-08-01 19:00:00,65.9,55.8,30.04,SW,236,3.0,4.0,70,0.00,,---,0.00,VWS V14.01,2013-08-02 02:00:00,
2013-08-01 19:05:00,65.7,56.0,30.04,WNW,302,1.0,4.0,71,0.00,,---,0.00,VWS V14.01,2013-08-02 02:05:00,
2013-08-01 19:06:00,65.7,55.7,30.04,SSE,164,0.0,4.0,70,0.00,,---,0.00,VWS V14.01,2013-08-02 02:06:00,
2013-08-01 19:10:00,65.3,55.7,30.04,West,259,3.0,6.0,71,0.00,,---,0.00,VWS V14.01,2013-08-02 02:10:00,
2013-08-01 19:11:00,65.4,55.8,30.04,WSW,240,2.0,3.0,71,0.00,,---,0.00,VWS V14.01,2013-08-02 02:11:00,
2013-08-01 19:15:00,64.8,55.6,30.04,WSW,255,2.0,5.0,72,0.00,,---,0.00,VWS V14.01,2013-08-02 02:15:00,
2013-08-01 19:16:00,64.9,55.7,30.04,SW,235,1.0,5.0,72,0.00,,---,0.00,VWS V14.01,2013-08-02 02:16:00,
2013-08-01 19:20:00,64.4,55.6,30.04,SSE,162,0.0,5.0,73,0.00,,---,0.00,VWS V14.01,2013-08-02 02:20:00,
2013-08-01 19:21:00,64.5,55.7,30.04,SSE,167,1.0,5.0,73,0.00,,---,0.00,VWS V14.01,2013-08-02 02:21:00,
2013-08-01 19:25:00,64.1,55.7,30.04,SSE,158,3.0,6.0,74,0.00,,---,0.00,VWS V14.01,2013-08-02 02:25:00,
2013-08-01 19:26:00,64.1,55.7,30.04,SSE,158,3.0,6.0,74,0.00,,---,0.00,VWS V14.01,2013-08-02 02:26:00,
2013-08-01 19:30:00,63.9,55.5,30.04,South,189,1.0,3.0,74,0.00,,---,0.00,VWS V14.01,2013-08-02 02:30:00,
2013-08-01 19:31:00,63.9,55.5,30.04,South,191,0.0,3.0,74,0.00,,---,0.00,VWS V14.01,2013-08-02 02:31:00,
2013-08-01 19:35:00,63.9,55.5,30.04,SSE,150,1.0,4.0,74,0.00,,---,0.00,VWS V14.01,2013-08-02 02:35:00,
2013-08-01 19:36:00,63.9,55.5,30.04,SSE,150,1.0,4.0,74,0.00,,---,0.00,VWS V14.01,2013-08-02 02:36:00,
2013-08-01 19:40:00,63.9,55.5,30.04,SSE,155,2.0,2.0,74,0.00,,---,0.00,VWS V14.01,2013-08-02 02:40:00,
2013-08-01 19:41:00,63.9,55.5,30.04,SSE,155,2.0,2.0,74,0.00,,---,0.00,VWS V14.01,2013-08-02 02:41:00,
2013-08-01 19:45:00,63.9,55.5,30.04,SW,222,0.0,4.0,74,0.00,,---,0.00,VWS V14.01,2013-08-02 02:45:00,
2013-08-01 19:46:00,63.9,55.5,30.04,SW,222,0.0,4.0,74,0.00,,---,0.00,VWS V14.01,2013-08-02 02:46:00,
2013-08-01 19:50:00,63.9,55.8,30.04,SSE,153,2.0,2.0,75,0.00,,---,0.00,VWS V14.01,2013-08-02 02:50:00,
2013-08-01 19:51:00,63.9,55.5,30.04,NW,317,1.0,2.0,74,0.00,,---,0.00,VWS V14.01,2013-08-02 02:51:00,
2013-08-01 19:55:00,63.8,55.4,30.04,SW,234,2.0,3.0,74,0.00,,---,0.00,VWS V14.01,2013-08-02 02:55:00,
2013-08-01 19:57:00,63.8,55.4,30.04,WNW,287,2.0,3.0,74,0.00,,---,0.00,VWS V14.01,2013-08-02 02:57:00,
2013-08-01 20:00:00,63.6,55.5,30.04,West,265,2.0,3.0,75,0.00,,---,0.00,VWS V14.01,2013-08-02 03:00:00,
2013-08-01 20:02:00,63.5,55.4,30.04,South,188,1.0,5.0,75,0.00,,---,0.00,VWS V14.01,2013-08-02 03:02:00,
2013-08-01 20:05:00,63.4,55.3,30.04,West,280,2.0,5.0,75,0.00,,---,0.00,VWS V14.01,2013-08-02 03:05:00,
2013-08-01 20:07:00,63.3,55.2,30.04,West,274,1.0,4.0,75,0.00,,---,0.00,VWS V14.01,2013-08-02 03:07:00,
2013-08-01 20:10:00,63.2,55.5,30.04,WNW,297,1.0,6.0,76,0.00,,---,0.00,VWS V14.01,2013-08-02 03:10:00,
2013-08-01 20:12:00,63.2,55.5,30.04,WSW,245,1.0,3.0,76,0.00,,---,0.00,VWS V14.01,2013-08-02 03:12:00,
2013-08-01 20:15:00,63.1,55.4,30.04,SW,228,1.0,5.0,76,0.00,,---,0.00,VWS V14.01,2013-08-02 03:15:00,
2013-08-01 20:17:00,63.1,55.4,30.04,South,174,0.0,2.0,76,0.00,,---,0.00,VWS V14.01,2013-08-02 03:17:00,
2013-08-01 20:20:00,63.0,55.3,30.04,SW,236,3.0,6.0,76,0.00,,---,0.00,VWS V14.01,2013-08-02 03:20:00,
2013-08-01 20:22:00,63.0,55.3,30.04,West,267,6.0,6.0,76,0.00,,---,0.00,VWS V14.01,2013-08-02 03:22:00,
2013-08-01 20:25:00,62.9,55.2,30.04,WNW,301,2.0,6.0,76,0.00,,---,0.00,VWS V14.01,2013-08-02 03:25:00,
2013-08-01 20:27:00,62.8,55.1,30.04,West,268,3.0,4.0,76,0.00,,---,0.00,VWS V14.01,2013-08-02 03:27:00,
2013-08-01 20:30:00,62.8,55.1,30.04,SW,226,2.0,4.0,76,0.00,,---,0.00,VWS V14.01,2013-08-02 03:30:00,
2013-08-01 20:32:00,62.8,55.5,30.04,WSW,238,1.0,4.0,77,0.00,,---,0.00,VWS V14.01,2013-08-02 03:32:00,
2013-08-01 20:35:00,62.7,55.4,30.04,SSE,165,2.0,4.0,77,0.00,,---,0.00,VWS V14.01,2013-08-02 03:35:00,
2013-08-01 20:37:00,62.7,55.4,30.05,WSW,245,1.0,3.0,77,0.00,,---,0.00,VWS V14.01,2013-08-02 03:37:00,
2013-08-01 20:40:00,62.6,55.3,30.05,SW,229,2.0,7.0,77,0.00,,---,0.00,VWS V14.01,2013-08-02 03:40:00,
2013-08-01 20:42:00,62.6,55.3,30.05,WSW,245,3.0,3.0,77,0.00,,---,0.00,VWS V14.01,2013-08-02 03:42:00,
2013-08-01 20:45:00,62.5,55.2,30.05,SW,226,2.0,6.0,77,0.00,,---,0.00,VWS V14.01,2013-08-02 03:45:00,
2013-08-01 20:47:00,62.5,55.2,30.05,WSW,257,1.0,2.0,77,0.00,,---,0.00,VWS V14.01,2013-08-02 03:47:00,
2013-08-01 20:50:00,62.4,55.1,30.05,West,259,3.0,6.0,77,0.00,,---,0.00,VWS V14.01,2013-08-02 03:50:00,
2013-08-01 20:52:00,62.4,55.1,30.05,WSW,251,1.0,5.0,77,0.00,,---,0.00,VWS V14.01,2013-08-02 03:52:00,
2013-08-01 20:55:00,62.3,55.0,30.05,West,271,0.0,5.0,77,0.00,,---,0.00,VWS V14.01,2013-08-02 03:55:00,
2013-08-01 20:57:00,62.3,55.0,30.05,WSW,257,1.0,1.0,77,0.00,,---,0.00,VWS V14.01,2013-08-02 03:57:00,
2013-08-01 21:00:00,62.3,55.0,30.06,WSW,255,2.0,4.0,77,0.00,,---,0.00,VWS V14.01,2013-08-02 04:00:00,
2013-08-01 21:01:00,62.2,54.9,30.06,WSW,255,2.0,2.0,77,0.00,,---,0.00,VWS V14.01,2013-08-02 04:01:00,
2013-08-01 21:05:00,62.1,55.2,30.06,WSW,248,1.0,4.0,78,0.00,,---,0.00,VWS V14.01,2013-08-02 04:05:00,
2013-08-01 21:06:00,62.2,55.3,30.06,SW,227,0.0,4.0,78,0.00,,---,0.00,VWS V14.01,2013-08-02 04:06:00,
2013-08-01 21:10:00,62.1,55.2,30.06,West,281,1.0,2.0,78,0.00,,---,0.00,VWS V14.01,2013-08-02 04:10:00,
2013-08-01 21:11:00,62.1,55.2,30.06,SW,222,1.0,2.0,78,0.00,,---,0.00,VWS V14.01,2013-08-02 04:11:00,
2013-08-01 21:15:00,62.0,55.1,30.06,South,170,0.0,6.0,78,0.00,,---,0.00,VWS V14.01,2013-08-02 04:15:00,
2013-08-01 21:16:00,61.9,55.0,30.06,WSW,253,5.0,6.0,78,0.00,,---,0.00,VWS V14.01,2013-08-02 04:16:00,
2013-08-01 21:20:00,61.8,55.2,30.06,SSE,151,0.0,3.0,79,0.00,,---,0.00,VWS V14.01,2013-08-02 04:20:00,
2013-08-01 21:21:00,61.8,55.2,30.06,WSW,242,1.0,3.0,79,0.00,,---,0.00,VWS V14.01,2013-08-02 04:21:00,
2013-08-01 21:25:00,61.7,55.1,30.05,SW,231,2.0,3.0,79,0.00,,---,0.00,VWS V14.01,2013-08-02 04:25:00,
2013-08-01 21:26:00,61.7,55.1,30.05,WSW,246,1.0,2.0,79,0.00,,---,0.00,VWS V14.01,2013-08-02 04:26:00,
2013-08-01 21:30:00,61.5,54.9,30.05,SSW,192,0.0,3.0,79,0.00,,---,0.00,VWS V14.01,2013-08-02 04:30:00,
2013-08-01 21:31:00,61.5,54.9,30.05,SW,231,0.0,3.0,79,0.00,,---,0.00,VWS V14.01,2013-08-02 04:31:00,
2013-08-01 21:35:00,61.3,54.7,30.05,SSE,155,0.0,2.0,79,0.00,,---,0.00,VWS V14.01,2013-08-02 04:35:00,
2013-08-01 21:36:00,61.3,54.7,30.05,SSW,198,0.0,2.0,79,0.00,,---,0.00,VWS V14.01,2013-08-02 04:36:00,
2013-08-01 21:40:00,61.1,54.9,30.05,WSW,257,1.0,5.0,80,0.00,,---,0.00,VWS V14.01,2013-08-02 04:40:00,
2013-08-01 21:41:00,61.1,54.9,30.05,NW,316,1.0,5.0,80,0.00,,---,0.00,VWS V14.01,2013-08-02 04:41:00,
2013-08-01 21:45:00,60.9,54.7,30.05,WSW,242,1.0,4.0,80,0.00,,---,0.00,VWS V14.01,2013-08-02 04:45:00,
2013-08-01 21:46:00,60.9,54.7,30.05,WSW,240,0.0,4.0,80,0.00,,---,0.00,VWS V14.01,2013-08-02 04:46:00,
2013-08-01 21:50:00,60.7,54.5,30.05,WSW,244,1.0,3.0,80,0.00,,---,0.00,VWS V14.01,2013-08-02 04:50:00,
2013-08-01 21:51:00,60.7,54.5,30.05,WSW,247,0.0,3.0,80,0.00,,---,0.00,VWS V14.01,2013-08-02 04:51:00,
2013-08-01 21:55:00,60.5,54.7,30.05,SSE,156,1.0,2.0,81,0.00,,---,0.00,VWS V14.01,2013-08-02 04:55:00,
2013-08-01 21:56:00,60.5,54.7,30.05,WNW,294,1.0,2.0,81,0.00,,---,0.00,VWS V14.01,2013-08-02 04:56:00,
2013-08-01 22:00:00,60.4,54.5,30.05,SSW,195,2.0,2.0,81,0.00,,---,0.00,VWS V14.01,2013-08-02 05:00:00,
2013-08-01 22:01:00,60.4,54.5,30.05,ESE,105,2.0,2.0,81,0.00,,---,0.00,VWS V14.01,2013-08-02 05:01:00,
2013-08-01 22:05:00,60.3,54.5,30.05,SE,127,0.0,4.0,81,0.00,,---,0.00,VWS V14.01,2013-08-02 05:05:00,
2013-08-01 22:06:00,60.3,54.5,30.05,South,181,0.0,4.0,81,0.00,,---,0.00,VWS V14.01,2013-08-02 05:06:00,
2013-08-01 22:10:00,60.2,54.4,30.05,SE,146,2.0,6.0,81,0.00,,---,0.00,VWS V14.01,2013-08-02 05:10:00,
2013-08-01 22:11:00,60.2,54.4,30.05,South,184,2.0,6.0,81,0.00,,---,0.00,VWS V14.01,2013-08-02 05:11:00,
2013-08-01 22:15:00,60.1,54.3,30.05,WNW,290,0.0,5.0,81,0.00,,---,0.00,VWS V14.01,2013-08-02 05:15:00,
2013-08-01 22:16:00,60.1,54.3,30.05,SSE,158,2.0,5.0,81,0.00,,---,0.00,VWS V14.01,2013-08-02 05:16:00,
2013-08-01 22:20:00,60.0,54.2,30.05,SE,127,1.0,2.0,81,0.00,,---,0.00,VWS V14.01,2013-08-02 05:20:00,
2013-08-01 22:21:00,60.0,54.2,30.05,SSW,207,0.0,2.0,81,0.00,,---,0.00,VWS V14.01,2013-08-02 05:21:00,
2013-08-01 22:25:00,59.9,54.4,30.06,SSE,150,2.0,4.0,82,0.00,,---,0.00,VWS V14.01,2013-08-02 05:25:00,
2013-08-01 22:26:00,59.9,54.4,30.06,SSE,153,1.0,2.0,82,0.00,,---,0.00,VWS V14.01,2013-08-02 05:26:00,
2013-08-01 22:30:00,59.8,54.3,30.06,West,262,0.0,3.0,82,0.00,,---,0.00,VWS V14.01,2013-08-02 05:30:00,
2013-08-01 22:31:00,59.9,54.4,30.06,SE,133,0.0,3.0,82,0.00,,---,0.00,VWS V14.01,2013-08-02 05:31:00,
2013-08-01 22:35:00,59.7,54.2,30.06,SW,221,0.0,3.0,82,0.00,,---,0.00,VWS V14.01,2013-08-02 05:35:00,
2013-08-01 22:40:00,59.7,54.2,30.06,SSE,157,2.0,4.0,82,0.00,,---,0.00,VWS V14.01,2013-08-02 05:40:00,
2013-08-01 22:45:00,59.6,54.1,30.05,South,181,1.0,2.0,82,0.00,,---,0.00,VWS V14.01,2013-08-02 05:45:00,
2013-08-01 22:50:00,59.5,54.0,30.05,SW,230,1.0,5.0,82,0.00,,---,0.00,VWS V14.01,2013-08-02 05:50:00,
2013-08-01 22:51:00,59.5,54.0,30.05,SSW,203,2.0,5.0,82,0.00,,---,0.00,VWS V14.01,2013-08-02 05:51:00,
2013-08-01 22:55:00,59.5,54.0,30.05,East,96,0.0,7.0,82,0.00,,---,0.00,VWS V14.01,2013-08-02 05:55:00,
2013-08-01 22:56:00,59.5,54.0,30.05,SE,136,3.0,7.0,82,0.00,,---,0.00,VWS V14.01,2013-08-02 05:56:00,
2013-08-01 23:00:00,59.5,54.0,30.05,SSE,156,1.0,3.0,82,0.00,,---,0.00,VWS V14.01,2013-08-02 06:00:00,
2013-08-01 23:01:00,59.5,54.0,30.05,SSE,148,0.0,3.0,82,0.00,,---,0.00,VWS V14.01,2013-08-02 06:01:00,
2013-08-01 23:05:00,59.4,54.2,30.05,SSE,160,0.0,4.0,83,0.00,,---,0.00,VWS V14.01,2013-08-02 06:05:00,
2013-08-01 23:06:00,59.4,54.2,30.05,SSE,165,2.0,4.0,83,0.00,,---,0.00,VWS V14.01,2013-08-02 06:06:00,
2013-08-01 23:10:00,59.3,54.2,30.05,SSE,155,0.0,2.0,83,0.00,,---,0.00,VWS V14.01,2013-08-02 06:10:00,
2013-08-01 23:11:00,59.3,54.2,30.05,ESE,117,2.0,2.0,83,0.00,,---,0.00,VWS V14.01,2013-08-02 06:11:00,
2013-08-01 23:15:00,59.3,54.2,30.05,SE,138,1.0,8.0,83,0.00,,---,0.00,VWS V14.01,2013-08-02 06:15:00,
2013-08-01 23:20:00,59.4,54.2,30.06,SE,134,2.0,4.0,83,0.00,,---,0.00,VWS V14.01,2013-08-02 06:20:00,
2013-08-01 23:21:00,59.4,54.2,30.06,South,172,2.0,4.0,83,0.00,,---,0.00,VWS V14.01,2013-08-02 06:21:00,
2013-08-01 23:25:00,59.5,54.3,30.06,SSE,150,0.0,4.0,83,0.00,,---,0.00,VWS V14.01,2013-08-02 06:25:00,
2013-08-01 23:30:00,59.6,54.4,30.06,North,2,0.0,3.0,83,0.00,,---,0.00,VWS V14.01,2013-08-02 06:30:00,
2013-08-01 23:31:00,59.6,54.4,30.06,SE,138,0.0,3.0,83,0.00,,---,0.00,VWS V14.01,2013-08-02 06:31:00,
2013-08-01 23:35:00,59.7,54.2,30.06,SSE,163,2.0,5.0,82,0.00,,---,0.00,VWS V14.01,2013-08-02 06:35:00,
2013-08-01 23:36:00,59.7,54.5,30.06,SSE,147,3.0,3.0,83,0.00,,---,0.00,VWS V14.01,2013-08-02 06:36:00,
2013-08-01 23:40:00,59.8,54.3,30.06,SSE,155,3.0,3.0,82,0.00,,---,0.00,VWS V14.01,2013-08-02 06:40:00,
2013-08-01 23:41:00,59.8,54.3,30.06,WSW,241,1.0,3.0,82,0.00,,---,0.00,VWS V14.01,2013-08-02 06:41:00,
2013-08-01 23:45:00,59.9,54.4,30.06,WSW,238,0.0,3.0,82,0.00,,---,0.00,VWS V14.01,2013-08-02 06:45:00,
2013-08-01 23:50:00,60.0,54.5,30.06,SE,144,2.0,3.0,82,0.00,,---,0.00,VWS V14.01,2013-08-02 06:50:00,
2013-08-01 23:55:00,59.9,54.4,30.06,SSE,158,1.0,4.0,82,0.00,,---,0.00,VWS V14.01,2013-08-02 06:55:00,